This is the latest recevied weather packets stored in our database for station/object VK6DUG. If no packets are shown the sender has not sent any weather packets the latest 10 day(s).
| Time | Temp. | Humidity | Pressure | Rain* | Wind** | Luminosity | Snow |
|---|---|---|---|---|---|---|---|
| 1778006418 | 12.22° C | 80% | 1030.6 hPa | 0 mm | - | 0 W/m² | - |
| 1778005833 | 12.22° C | 80% | 1030.7 hPa | 0 mm | - | 0 W/m² | - |
| 1778005226 | 12.22° C | 81% | 1030.7 hPa | 0 mm | - | 0 W/m² | - |
| 1778004617 | 12.22° C | 82% | 1030.7 hPa | 0 mm | - | 0 W/m² | - |
| 1778004035 | 11.67° C | 86% | 1030.5 hPa | 0 mm | - | 0 W/m² | - |
| 1778003427 | 11.11° C | 90% | 1030.5 hPa | 0 mm | - | 0 W/m² | - |
| 1778002820 | 10.56° C | 91% | 1030.3 hPa | 0 mm | - | 0 W/m² | - |
| 1778002234 | 10° C | 92% | 1030.4 hPa | 0 mm | - | 0 W/m² | - |
| 1778001629 | 9.44° C | 92% | 1030.3 hPa | 0 mm | - | 0 W/m² | - |
| 1778001022 | 9.44° C | 91% | 1030.4 hPa | 0 mm | - | 0 W/m² | - |
| 1778000417 | 9.44° C | 91% | 1030.3 hPa | 0 mm | - | 0 W/m² | - |
| 1777999831 | 10° C | 91% | 1030.3 hPa | 0 mm | - | 0 W/m² | - |
| 1777999225 | 10° C | 91% | 1030.3 hPa | 0 mm | - | 0 W/m² | - |
| 1777998621 | 10° C | 91% | 1030.2 hPa | 0 mm | - | 0 W/m² | - |
| 1777998035 | 10° C | 91% | 1030.1 hPa | 0 mm | - | 0 W/m² | - |
| 1777997428 | 10.56° C | 91% | 1030 hPa | 0 mm | - | 0 W/m² | - |
| 1777996823 | 10.56° C | 91% | 1029.9 hPa | 0 mm | - | 0 W/m² | - |
| 1777996217 | 10.56° C | 91% | 1030 hPa | 0 mm | - | 0 W/m² | - |
| 1777995633 | 10.56° C | 91% | 1030 hPa | 0 mm | - | 0 W/m² | - |
| 1777995029 | 10.56° C | 90% | 1029.9 hPa | 0 mm | - | 0 W/m² | - |
| 1777994421 | 10.56° C | 90% | 1029.9 hPa | 0 mm | - | 0 W/m² | - |
| 1777993817 | 11.11° C | 90% | 1029.9 hPa | 0 mm | - | 0 W/m² | - |
| 1777993233 | 11.11° C | 89% | 1029.9 hPa | 0 mm | - | 0 W/m² | - |
| 1777992626 | 11.67° C | 89% | 1030 hPa | 0 mm | - | 0 W/m² | - |
| 1777992020 | 11.67° C | 89% | 1030 hPa | 0 mm | - | 0 W/m² | - |
* Rain latest hour (hover to see other rain measurements)
** Current wind speed in m/s (hover to see current wind gust speed)